This demonstration page uses our WeatherBlox Daily Observations layout. Learn more.

Left ArrowRight Arrow

Hourly Observations for August 19, 2015

Temp ( °F °C ) Dew Point ( °F °C ) Humidity (%) Winds ( mph kmh ) Pressure ( in mb ) Visibility ( mi km ) Precip ( " mm )
12:53 am 00:53 Clear with Smoke 76 24.4 52 11.1 43 43 NNE 3 6 29.81 1010 10 16 0.00 0.00
1:53 am 01:53 Clear with Smoke 74 23.3 52 11.1 46 46 Calm 29.81 1010 10 16 0.00 0.00
2:53 am 02:53 Clear with Smoke 71 21.7 51 10.6 49 49 Calm 29.82 1010 10 16 0.00 0.00
3:53 am 03:53 Clear with Smoke 70 21.1 49 9.4 47 47 Calm 29.83 1010 10 16 0.00 0.00
4:53 am 04:53 Clear with Smoke 68 20 49 9.4 51 51 Calm 29.83 1010 10 16 0.00 0.00
5:53 am 05:53 Clear with Smoke 67 19.4 49 9.4 53 53 N 3 6 29.84 1010 10 16 0.00 0.00
6:53 am 06:53 Sunny with Smoke 66 18.9 50 10 56 56 WSW 3 6 29.85 1011 8 13 0.00 0.00
7:53 am 07:53 Sunny with Smoke 69 20.6 51 10.6 53 53 Calm 29.87 1011 9 14 0.00 0.00
8:53 am 08:53 Sunny with Smoke 74 23.3 53 11.7 48 48 S 5 7 29.88 1012 9 14 0.00 0.00
9:53 am 09:53 Sunny with Smoke 79 26.1 54 12.2 42 42 SSE 5 7 29.87 1012 9 14 0.00 0.00
10:53 am 10:53 Sunny with Smoke 83 28.3 53 11.7 36 36 SE 3 6 29.86 1011 9 14 0.00 0.00
11:53 am 11:53 Sunny with Smoke 87 30.6 50 10 28 28 S 3 6 29.85 1011 8 13 0.00 0.00
12:53 pm 12:53 Sunny with Smoke 91 32.8 50 10 25 25 Calm 29.83 1010 9 14 0.00 0.00
1:53 pm 13:53 Sunny with Smoke 95 35 50 10 22 22 S 8 13 29.81 1009 10 16 0.00 0.00
2:53 pm 14:53 Sunny with Smoke 96 35.6 48 8.9 19 19 SSW 7 11 29.79 1009 10 16 0.00 0.00
3:53 pm 15:53 Sunny with Smoke 98 36.7 45 7.2 16 16 S 14 22 29.77 1008 10 16 0.00 0.00
4:53 pm 16:53 Sunny with Smoke 98 36.7 45 7.2 16 16 VRB 5 7 29.75 1008 10 16 0.00 0.00
5:53 pm 17:53 Partly Cloudy 96 35.6 45 7.2 17 17 S 12 19 29.75 1007 10 16 0.00 0.00
6:53 pm 18:53 Cloudy 92 33.3 50 10 24 24 SSE 10 17 29.75 1008 10 16 0.00 0.00
7:53 pm 19:53 Cloudy 88 31.1 50 10 27 27 SSE 7 11 29.77 1008 10 16 0.00 0.00
8:53 pm 20:53 Cloudy 86 30 50 10 29 29 Calm 29.78 1008 10 16 0.00 0.00
9:53 pm 21:53 Cloudy 82 27.8 51 10.6 34 34 Calm 29.80 1009 10 16 0.00 0.00
10:53 pm 22:53 Cloudy 80 26.7 51 10.6 37 37 NNE 3 6 29.80 1009 10 16 0.00 0.00
11:53 pm 23:53 Cloudy 79 26.1 53 11.7 41 41 Calm 29.80 1009 10 16 0.00 0.00

Powered by AerisWeather